This is the latest recevied weather packets stored in our database for station/object VK4TOM-13. If no packets are shown the sender has not sent any weather packets the latest 10 day(s).
| Time | Temp. | Humidity | Pressure | Rain* | Wind** | Luminosity | Snow |
|---|---|---|---|---|---|---|---|
| 1787820038 | 21.67° C | 70% | 1021.3 hPa | 0 mm | - | - | - |
| 1787819831 | 21.67° C | 70% | 1021.3 hPa | 0 mm | - | - | - |
| 1787819229 | 21.67° C | 70% | 1020.9 hPa | 0 mm | - | - | - |
| 1787818628 | 22.22° C | 70% | 1020.7 hPa | 0 mm | - | - | - |
| 1787818027 | 22.22° C | 70% | 1020.7 hPa | 0 mm | - | - | - |
| 1787817426 | 22.78° C | 70% | 1020.4 hPa | 0 mm | - | - | - |
| 1787816825 | 23.33° C | 64% | 1020.3 hPa | 0 mm | - | - | - |
| 1787816224 | 23.89° C | 69% | 1020.1 hPa | 0 mm | - | - | - |
| 1787815623 | 24.44° C | 70% | 1019.9 hPa | 0 mm | - | - | - |
| 1787815022 | 25° C | 60% | 1019.9 hPa | 0 mm | - | - | - |
| 1787814421 | 25.56° C | 48% | 1019.8 hPa | 0 mm | - | - | - |
| 1787813820 | 26.67° C | 40% | 1019.7 hPa | 0 mm | - | - | - |
| 1787813219 | 27.78° C | 35% | 1019.7 hPa | 0 mm | - | - | - |
| 1787812618 | 28.89° C | 30% | 1019.6 hPa | 0 mm | - | - | - |
| 1787812017 | 29.44° C | 28% | 1019.6 hPa | 0 mm | - | - | - |
| 1787811416 | 30.56° C | 23% | 1019.5 hPa | 0 mm | - | - | - |
| 1787810815 | 31.67° C | 21% | 1019.6 hPa | 0 mm | - | - | - |
| 1787810214 | 32.22° C | 20% | 1019.5 hPa | 0 mm | - | - | - |
| 1787809612 | 32.22° C | 19% | 1019.5 hPa | 0 mm | - | - | - |
| 1787809011 | 32.78° C | 19% | 1019.6 hPa | 0 mm | - | - | - |
| 1787808410 | 32.22° C | 20% | 1019.6 hPa | 0 mm | - | - | - |
* Rain since midnight (hover to see other rain measurements)
** Current wind speed in m/s (hover to see current wind gust speed)